• En España
  • Lista de países
  • Para 7 días
  • Temperatura del agua
  • Mapa Satelital
  • El tiempo en el mapa
  • Informadores
  • user-avatar
    Iniciar sesión

    Tiempo cada hora Dobrich

    Hoy, 19 Septiembre, Miércoles

    Tiempo Temperatura Precipitaciones Viento Presión Humedad
    00:00 +16°C° 0 mm 2 mps 745 mmHg 70%
    01:00 +15°C° 0 mm 2 mps 745 mmHg 72%
    02:00 +15°C° 0 mm 1 mps 745 mmHg 73%
    03:00 +14°C° 0 mm 1 mps 745 mmHg 74%
    04:00 +14°C° 0 mm 1 mps 745 mmHg 75%
    05:00 +14°C° 0 mm 1 mps 745 mmHg 76%
    06:00 +15°C° 0 mm 2 mps 745 mmHg 71%
    07:00 +17°C° 0 mm 2 mps 745 mmHg 65%
    08:00 +18°C° 0 mm 2 mps 745 mmHg 58%
    09:00 +19°C° 0 mm 3 mps 745 mmHg 53%
    10:00 +21°C° 0 mm 3 mps 746 mmHg 48%
    11:00 +22°C° 0 mm 4 mps 746 mmHg 42%
    12:00 +23°C° 0 mm 4 mps 745 mmHg 40%
    13:00 +25°C° 0 mm 4 mps 745 mmHg 38%
    14:00 +25°C° 0 mm 4 mps 745 mmHg 39%
    15:00 +23°C° 0 mm 4 mps 745 mmHg 41%
    16:00 +23°C° 0 mm 4 mps 745 mmHg 43%
    17:00 +22°C° 0 mm 4 mps 744 mmHg 45%
    18:00 +20°C° 0 mm 4 mps 744 mmHg 52%
    19:00 +19°C° 0 mm 3 mps 744 mmHg 59%
    20:00 +17°C° 0 mm 3 mps 744 mmHg 66%
    21:00 +16°C° 0 mm 2 mps 744 mmHg 68%
    22:00 +16°C° 0 mm 2 mps 744 mmHg 71%
    23:00 +15°C° 0 mm 1 mps 744 mmHg 74%

    Mañana, 20 Septiembre, Jueves

    Tiempo Temperatura Precipitaciones Viento Presión Humedad
    00:00 +15°C° 0 mm 1 mps 744 mmHg 75%
    01:00 +15°C° 0 mm 1 mps 744 mmHg 76%
    02:00 +15°C° 0 mm 1 mps 744 mmHg 78%
    03:00 +14°C° 0 mm 1 mps 744 mmHg 78%
    04:00 +14°C° 0 mm 2 mps 744 mmHg 79%
    05:00 +14°C° 0 mm 2 mps 743 mmHg 80%
    06:00 +15°C° 0 mm 2 mps 744 mmHg 75%
    07:00 +17°C° 0 mm 2 mps 744 mmHg 69%
    08:00 +18°C° 0 mm 3 mps 744 mmHg 64%
    09:00 +20°C° 0 mm 3 mps 744 mmHg 59%
    10:00 +22°C° 0 mm 3 mps 744 mmHg 53%
    11:00 +25°C° 0 mm 4 mps 744 mmHg 48%
    12:00 +26°C° 0 mm 4 mps 744 mmHg 46%
    13:00 +26°C° 0 mm 4 mps 744 mmHg 44%
    14:00 +27°C° 0 mm 4 mps 743 mmHg 42%
    15:00 +26°C° 0 mm 4 mps 743 mmHg 45%
    16:00 +26°C° 0 mm 4 mps 743 mmHg 48%
    17:00 +25°C° 0 mm 4 mps 742 mmHg 51%
    18:00 +22°C° 0 mm 4 mps 742 mmHg 60%
    19:00 +20°C° 0 mm 3 mps 742 mmHg 69%
    20:00 +19°C° 0 mm 3 mps 742 mmHg 77%
    21:00 +18°C° 0 mm 2 mps 742 mmHg 80%
    22:00 +18°C° 0 mm 2 mps 742 mmHg 82%
    23:00 +17°C° 0 mm 2 mps 742 mmHg 85%

    Pasado mañana, 21 Septiembre, Viernes

    Tiempo Temperatura Precipitaciones Viento Presión Humedad
    00:00 +18°C° 0 mm 1 mps 742 mmHg 85%
    01:00 +18°C° 0 mm 1 mps 742 mmHg 86%
    02:00 +18°C° 0 mm 1 mps 742 mmHg 86%
    03:00 +16°C° 0 mm 1 mps 742 mmHg 87%
    04:00 +16°C° 0 mm 2 mps 742 mmHg 87%
    05:00 +16°C° 0 mm 2 mps 742 mmHg 87%
    06:00 +17°C° 0 mm 2 mps 742 mmHg 80%
    07:00 +18°C° 0 mm 2 mps 742 mmHg 74%
    08:00 +19°C° 0 mm 3 mps 742 mmHg 67%
    09:00 +21°C° 0 mm 3 mps 743 mmHg 58%
    10:00 +24°C° 0 mm 3 mps 743 mmHg 49%
    11:00 +26°C° 0 mm 3 mps 743 mmHg 40%
    12:00 +27°C° 0 mm 4 mps 743 mmHg 38%
    13:00 +28°C° 0 mm 4 mps 742 mmHg 37%
    14:00 +28°C° 0 mm 4 mps 742 mmHg 35%
    15:00 +27°C° 0 mm 4 mps 742 mmHg 38%
    16:00 +27°C° 0 mm 3 mps 742 mmHg 42%
    17:00 +26°C° 0 mm 3 mps 741 mmHg 45%
    18:00 +24°C° 0 mm 3 mps 741 mmHg 53%
    19:00 +21°C° 0 mm 2 mps 742 mmHg 61%
    20:00 +20°C° 0 mm 2 mps 742 mmHg 69%
    21:00 +19°C° 0 mm 2 mps 742 mmHg 72%
    22:00 +20°C° 0 mm 1 mps 742 mmHg 76%
    23:00 +19°C° 0 mm 1 mps 742 mmHg 79%

    22 Septiembre, Sábado

    Tiempo Temperatura Precipitaciones Viento Presión Humedad
    00:00 +19°C° 0 mm 1 mps 741 mmHg 80%
    01:00 +19°C° 0 mm 1 mps 741 mmHg 81%
    02:00 +18°C° 0 mm 1 mps 741 mmHg 83%
    03:00 +18°C° 0 mm 1 mps 741 mmHg 82%
    04:00 +18°C° 0 mm 1 mps 741 mmHg 82%
    05:00 +18°C° 0 mm 1 mps 741 mmHg 82%
    06:00 +19°C° 0 mm 1 mps 741 mmHg 75%
    07:00 +20°C° 0 mm 1 mps 741 mmHg 69%
    08:00 +21°C° 0 mm 1 mps 742 mmHg 62%
    09:00 +23°C° 0 mm 1 mps 742 mmHg 54%
    10:00 +25°C° 0 mm 1 mps 742 mmHg 45%
    11:00 +27°C° 0 mm 1 mps 742 mmHg 36%
    12:00 +28°C° 0 mm 2 mps 742 mmHg 34%
    13:00 +29°C° 0 mm 2 mps 741 mmHg 32%
    14:00 +29°C° 0 mm 2 mps 741 mmHg 29%
    15:00 +29°C° 0 mm 2 mps 741 mmHg 32%
    16:00 +28°C° 0 mm 2 mps 741 mmHg 35%
    17:00 +27°C° 0 mm 2 mps 740 mmHg 37%
    18:00 +25°C° 0 mm 2 mps 740 mmHg 43%
    19:00 +23°C° 0 mm 2 mps 741 mmHg 50%
    20:00 +20°C° 0 mm 2 mps 741 mmHg 56%
    21:00 +20°C° 0 mm 2 mps 741 mmHg 58%
    22:00 +20°C° 0 mm 2 mps 741 mmHg 59%
    23:00 +19°C° 0 mm 2 mps 741 mmHg 61%

    23 Septiembre, Domingo

    Tiempo Temperatura Precipitaciones Viento Presión Humedad
    00:00 +19°C° 0 mm 2 mps 741 mmHg 61%
    01:00 +19°C° 0 mm 2 mps 741 mmHg 61%
    02:00 +19°C° 0 mm 2 mps 740 mmHg 62%
    03:00 +19°C° 0 mm 2 mps 740 mmHg 60%
    04:00 +19°C° 0 mm 2 mps 741 mmHg 58%
    05:00 +19°C° 0 mm 2 mps 741 mmHg 57%
    06:00 +20°C° 0 mm 3 mps 741 mmHg 52%
    07:00 +21°C° 0 mm 3 mps 741 mmHg 48%
    08:00 +22°C° 0 mm 3 mps 742 mmHg 44%
    09:00 +24°C° 0 mm 3 mps 742 mmHg 41%
    10:00 +26°C° 0 mm 4 mps 742 mmHg 39%
    11:00 +27°C° 0 mm 4 mps 743 mmHg 36%
    12:00 +28°C° 0 mm 4 mps 743 mmHg 36%
    13:00 +28°C° 0 mm 4 mps 742 mmHg 36%
    14:00 +28°C° 0 mm 3 mps 742 mmHg 36%
    15:00 +27°C° 0 mm 4 mps 742 mmHg 40%
    16:00 +26°C° 0 mm 4 mps 742 mmHg 43%
    17:00 +25°C° 0 mm 5 mps 742 mmHg 47%
    18:00 +22°C° 0 mm 5 mps 742 mmHg 55%
    19:00 +21°C° 0 mm 4 mps 742 mmHg 62%
    20:00 +19°C° 0 mm 4 mps 743 mmHg 70%
    21:00 +19°C° 0 mm 4 mps 743 mmHg 73%
    22:00 +18°C° 0 mm 4 mps 743 mmHg 76%
    23:00 +18°C° 0 mm 4 mps 743 mmHg 79%

    24 Septiembre, Lunes

    Tiempo Temperatura Precipitaciones Viento Presión Humedad
    00:00 +18°C° 0 mm 4 mps 742 mmHg 80%
    01:00 +18°C° 0 mm 4 mps 742 mmHg 82%
    02:00 +18°C° 0 mm 4 mps 741 mmHg 84%
    03:00 +18°C° 0 mm 4 mps 741 mmHg 86%
    04:00 +17°C° 0 mm 5 mps 740 mmHg 88%
    05:00 +17°C° 0 mm 5 mps 740 mmHg 90%
    06:00 +19°C° 0 mm 5 mps 739 mmHg 86%
    07:00 +20°C° 0 mm 6 mps 739 mmHg 82%
    08:00 +21°C° 0 mm 6 mps 738 mmHg 79%
    09:00 +23°C° 0 mm 6 mps 738 mmHg 71%
    10:00 +24°C° 0 mm 7 mps 738 mmHg 63%
    11:00 +27°C° 0 mm 7 mps 737 mmHg 55%
    12:00 +28°C° 0 mm 7 mps 737 mmHg 52%
    13:00 +29°C° 0 mm 7 mps 736 mmHg 48%
    14:00 +30°C° 0 mm 7 mps 735 mmHg 44%
    15:00 +29°C° 0 mm 7 mps 735 mmHg 46%
    16:00 +28°C° 0 mm 6 mps 734 mmHg 47%
    17:00 +28°C° 0 mm 6 mps 733 mmHg 48%
    18:00 +26°C° 0 mm 5 mps 734 mmHg 54%
    19:00 +25°C° 0 mm 5 mps 734 mmHg 60%
    20:00 +22°C° 0 mm 4 mps 735 mmHg 66%
    21:00 +21°C° 0 mm 6 mps 735 mmHg 59%
    22:00 +20°C° 0 mm 8 mps 736 mmHg 52%
    23:00 +19°C° 0 mm 10 mps 737 mmHg 45%
    Mostrar más